Wind_Speed
44 44 44 43 43 44 45 46 48 49 51 51 52 52 52 51 51 50 50 50 48 48 49 48 48 47 46 45 44 44 44 43 42 40 37 34 34 34 34 33 32 31 29 28 27 25 22 20 19 18 18 17 15 13 11 9 8 6 5 4 4 5 6 7 8 9 10 10 10
45 45 45 44 44 44 44 45 47 49 50 51 51 51 50 49 47 47 46 46 46 46 47 47 47 46 45 45 44 44 44 43 42 39 36 34 34 34 34 33 32 31 29 28 25 23 21 20 19 19 18 16 14 12 10 9 7 6 5 4 5 5 7 8 9 9 10 10 10
46 46 45 45 44 44 44 45 46 48 49 48 47 46 45 45 43 42 43 44 43 44 45 46 46 45 44 44 44 44 43 42 40 38 35 34 34 34 34 34 33 31 29 27 24 22 21 20 20 19 17 15 13 11 10 8 7 5 4 4 5 6 7 8 9 9 10 10 10
47 47 46 46 45 45 44 45 46 48 48 47 44 42 41 41 41 40 39 40 40 41 43 44 44 43 43 43 43 43 42 41 39 37 35 35 35 35 35 35 33 31 29 26 24 22 22 22 21 19 16 14 12 10 9 8 6 5 5 5 5 6 7 8 9 9 10 10 11
47 47 47 46 45 45 44 44 45 47 47 45 42 40 39 39 40 39 37 35 36 39 40 41 41 41 41 41 42 41 41 39 38 37 36 36 36 36 36 35 33 31 28 26 24 23 23 23 21 19 16 14 12 10 9 8 6 5 5 5 6 6 7 8 9 9 10 11 11
46 47 47 46 45 44 44 44 45 46 47 47 44 41 39 39 38 37 35 34 34 36 38 38 39 39 40 40 40 40 40 39 38 37 37 37 38 38 37 35 33 31 28 26 26 25 25 23 20 18 15 14 12 11 9 8 6 5 5 5 6 6 7 8 9 9 10 10 11
45 46 46 46 45 44 44 44 45 46 47 47 45 41 39 38 37 36 35 34 34 35 36 37 37 38 39 39 39 39 39 38 37 37 38 38 39 39 38 36 34 31 29 28 27 27 26 23 19 17 15 14 12 10 9 7 6 6 6 6 6 7 7 8 9 10 10 10 11
43 45 45 45 45 45 45 45 45 46 46 46 44 40 37 35 34 34 33 33 33 35 35 36 36 37 37 38 38 39 39 38 38 38 39 40 40 39 38 36 34 31 29 29 29 28 25 22 19 17 15 13 11 9 8 7 7 6 6 6 7 7 8 8 9 10 10 10 11
41 43 45 45 45 45 45 45 45 45 45 44 43 40 37 35 34 32 30 31 33 34 35 35 35 35 36 37 38 39 39 38 39 40 41 41 40 39 37 36 33 31 30 30 29 27 24 21 19 17 15 12 10 9 9 8 7 7 7 7 7 8 9 9 10 10 10 11 11
40 42 44 45 45 45 45 45 45 44 44 43 42 40 38 35 33 31 31 32 33 34 35 35 35 35 36 37 38 39 39 39 39 41 42 41 40 39 37 35 33 31 31 30 29 26 23 20 18 16 14 12 10 10 9 9 8 7 7 7 8 8 9 10 10 10 11 11 11
39 42 44 45 46 46 46 45 44 44 43 42 42 40 37 33 31 31 33 33 33 34 35 35 35 35 36 37 39 39 39 38 40 41 41 40 39 38 37 34 32 31 31 30 27 24 21 20 18 16 14 12 11 10 10 9 8 7 7 8 8 9 10 10 11 11 11 11 12
39 42 44 46 46 47 46 45 44 43 42 41 41 38 34 31 30 31 34 34 34 34 35 35 35 36 37 38 39 39 38 38 40 41 41 40 40 38 36 33 32 31 30 28 25 23 21 19 17 15 13 12 12 11 10 9 8 7 7 8 8 9 10 10 11 11 12 12 13
40 42 44 45 46 47 46 45 44 43 41 40 39 36 33 30 29 31 33 34 34 34 34 34 35 36 37 38 38 38 37 38 40 42 42 41 40 37 34 32 31 30 28 26 24 22 21 19 17 15 13 12 11 10 9 8 8 8 8 8 9 9 10 10 11 11 12 13 13
40 42 44 45 46 46 45 44 43 42 40 39 37 35 32 30 30 31 33 34 34 34 34 35 35 36 37 37 37 37 37 39 41 43 43 41 39 36 33 32 31 29 27 24 23 22 20 18 16 15 13 12 11 10 9 8 8 8 8 9 9 9 10 11 11 12 12 13 13
40 42 44 45 45 45 44 43 42 41 39 38 36 34 31 30 30 31 32 33 33 33 34 35 36 37 36 36 36 36 37 39 42 44 42 40 37 34 33 32 30 27 25 24 24 22 20 18 16 15 13 11 10 9 9 9 8 8 9 9 9 10 11 11 12 12 13 13 14
41 42 43 44 45 44 43 42 40 39 38 36 35 33 31 30 30 31 32 32 32 33 34 36 37 37 36 35 35 35 37 40 43 43 41 37 35 33 32 31 28 27 26 25 24 22 20 18 16 14 12 10 9 9 9 9 9 9 9 9 10 10 11 12 12 13 13 14 15
40 42 43 44 44 43 42 40 39 38 37 35 33 31 30 30 30 31 32 32 33 33 35 36 37 37 36 35 33 34 37 40 42 40 38 35 33 32 31 29 28 27 27 26 24 21 19 17 15 13 11 9 9 8 8 9 9 9 9 9 10 11 11 12 13 13 14 15 15
40 42 43 43 42 41 39 38 37 37 36 34 32 31 30 30 31 32 32 32 33 34 35 36 36 36 35 34 33 34 36 39 39 37 34 32 31 30 29 29 28 28 27 25 22 20 17 15 13 11 10 9 8 8 9 9 9 9 9 10 11 11 12 13 14 14 15 16 16
40 42 42 42 41 39 37 36 36 36 34 33 31 30 30 31 32 32 32 32 32 33 34 35 35 34 33 32 32 33 35 37 36 34 32 31 30 30 30 30 29 28 26 23 21 18 16 13 11 10 9 8 8 8 9 9 10 10 10 11 12 13 13 14 15 15 16 16 17
40 41 41 41 39 37 36 36 36 35 33 32 31 30 31 31 32 32 32 32 32 33 33 34 34 33 32 31 31 32 34 34 34 33 32 32 31 31 31 30 28 26 23 21 19 16 14 12 10 9 9 8 9 9 10 10 10 11 11 12 13 14 15 15 15 16 16 16 16
40 40 40 39 37 37 36 36 36 34 33 32 31 31 31 32 32 32 32 32 33 33 33 33 33 33 32 31 31 32 34 35 35 35 34 34 33 32 30 28 26 23 21 19 17 15 13 11 10 9 9 9 10 10 10 10 11 12 13 14 14 15 15 15 15 15 15 16 16
39 39 38 37 36 36 36 36 35 34 32 31 31 31 32 32 33 33 33 33 34 34 34 33 33 33 32 31 32 34 36 37 37 36 35 34 32 30 27 25 23 21 19 17 15 13 11 10 9 9 10 10 11 11 11 11 12 13 14 14 15 15 15 14 14 14 15 15 16
38 38 37 36 35 36 36 35 34 33 32 32 32 32 33 33 33 33 34 34 34 34 33 32 32 31 30 31 33 35 37 37 36 35 33 31 29 27 25 23 21 19 17 15 12 11 10 9 10 11 11 11 11 11 11 12 13 13 14 14 14 14 14 14 14 14 15 16 17
38 37 36 35 35 35 35 35 33 33 32 32 32 33 33 33 34 34 34 34 33 32 31 30 29 28 28 29 32 34 35 34 33 31 29 28 26 25 23 21 19 17 15 13 11 10 10 10 11 11 11 11 11 11 12 13 13 14 14 13 13 13 13 13 14 15 16 17 17
37 36 36 35 35 35 34 33 33 32 32 32 33 33 33 33 33 33 33 32 31 30 29 28 27 26 26 28 30 31 31 30 29 28 27 26 24 23 21 18 16 14 13 11 10 10 10 11 11 11 11 11 11 12 12 13 13 13 13 13 12 12 12 13 14 15 16 17 18
36 35 35 34 34 34 33 33 33 33 33 33 33 33 33 32 32 31 31 30 29 28 27 26 25 25 26 27 28 28 28 27 27 26 25 23 22 20 18 16 14 12 11 10 10 11 11 11 11 11 11 11 11 12 12 13 13 13 12 12 12 13 13 14 15 16 17 18 18
35 35 34 34 34 33 33 33 33 33 33 33 32 32 32 31 30 29 29 28 27 26 25 24 24 25 25 26 27 27 26 25 24 23 22 21 19 17 15 14 12 11 10 10 11 11 11 11 11 11 11 11 11 12 12 12 12 12 12 12 13 14 14 15 16 16 17 18 18
35 35 35 34 34 34 33 33 33 32 32 32 31 31 30 29 29 28 27 26 25 25 24 24 24 25 25 26 26 25 25 24 23 22 20 19 17 15 13 12 10 10 10 11 11 11 11 11 11 10 10 10 11 11 12 12 12 12 12 13 14 15 15 16 16 17 17 18 18
35 35 34 34 33 32 32 31 30 30 30 30 29 29 28 27 27 26 25 25 25 25 25 26 26 26 26 25 25 24 23 22 21 20 18 16 15 13 11 10 10 11 11 11 11 10 10 11 11 11 10 11 11 11 11 11 12 12 13 14 15 15 16 17 17 17 17 18 18
33 33 32 32 31 30 29 29 28 28 28 28 27 26 26 25 24 24 24 25 25 26 26 27 27 26 25 24 23 23 22 21 19 18 16 14 12 11 11 11 11 11 11 10 10 10 10 11 11 11 11 11 11 11 11 11 12 13 14 15 15 16 16 17 17 17 17 17 18
31 31 30 30 29 28 28 28 27 27 26 26 25 24 24 24 24 25 25 26 26 26 26 26 26 25 24 23 22 22 21 19 17 15 13 12 12 12 12 12 11 11 10 9 9 9 10 10 11 11 11 11 11 11 11 11 12 13 14 15 16 16 16 17 17 17 17 17 17
30 30 29 29 29 29 28 27 27 26 25 24 24 24 24 25 26 26 26 26 26 26 26 25 25 24 24 23 22 20 19 17 15 14 13 12 12 12 12 11 10 9 9 9 9 9 10 11 11 11 11 10 10 10 11 12 13 14 14 15 15 16 16 16 16 16 17 17 17
30 30 30 30 29 29 28 27 26 25 24 24 25 26 27 27 27 27 27 27 26 26 26 25 24 24 23 22 20 18 17 15 14 14 13 13 12 12 11 9 9 8 8 8 9 9 10 10 10 10 10 9 10 11 12 12 13 14 14 15 15 15 15 15 16 16 16 17 17
28 28 28 28 27 27 26 25 25 25 25 26 27 27 28 28 28 28 28 27 26 25 25 24 23 21 20 19 17 16 15 14 14 14 13 12 11 10 9 8 8 8 8 9 9 9 9 9 9 9 9 10 10 11 12 13 13 14 14 14 15 15 15 15 15 15 16 16 17
25 24 24 24 24 24 24 24 25 25 26 27 28 28 28 28 28 28 27 27 25 24 23 22 20 18 17 16 15 14 13 13 13 12 11 10 9 9 9 9 9 8 8 8 8 8 8 8 8 9 9 10 11 12 12 13 13 13 14 14 14 14 14 15 15 15 16 16 16
22 22 21 20 21 21 22 23 25 26 27 28 28 28 28 28 27 26 26 25 24 22 21 19 17 16 15 14 13 12 12 11 11 10 9 9 9 9 8 8 8 7 7 6 6 7 7 8 8 9 10 10 11 12 12 12 13 13 13 13 13 14 14 14 14 15 15 15 16
21 20 20 20 20 22 23 25 26 27 28 28 28 28 28 27 26 25 23 22 21 20 18 17 15 14 13 13 12 11 10 10 9 9 8 8 8 7 7 6 5 5 5 5 6 7 8 9 9 10 10 11 11 12 12 12 12 12 12 12 13 13 13 14 14 14 14 15 15
21 20 21 22 23 25 26 27 28 28 29 28 28 27 26 25 24 23 21 19 18 17 16 15 14 13 12 11 11 10 9 9 8 7 7 6 5 4 3 3 3 4 5 5 6 7 9 10 10 10 10 11 11 11 11 11 12 12 12 12 13 13 13 13 13 13 14 14 15
20 22 23 26 27 28 29 29 29 29 28 28 27 26 24 23 22 20 19 17 16 15 14 14 13 12 11 10 10 9 8 7 6 5 3 2 1 1 2 2 3 4 5 6 7 8 9 10 10 10 10 10 10 11 11 11 11 12 12 12 12 12 12 12 12 12 13 13 14
21 24 26 28 29 30 29 29 28 28 27 26 25 24 22 21 20 19 17 16 14 13 13 13 12 11 10 9 8 7 6 5 4 3 2 1 1 1 2 3 4 5 6 7 8 9 10 10 11 11 10 10 10 10 11 11 11 12 12 12 12 12 12 12 11 11 11 12 12
24 26 28 29 29 29 28 28 27 26 25 24 23 22 21 20 19 17 16 15 14 13 12 11 11 10 8 7 6 5 5 4 3 3 2 2 2 2 3 4 5 6 7 7 8 9 10 10 11 11 11 10 10 11 11 11 11 11 12 12 12 12 11 11 11 10 11 11 11
Wind_Direction
228 229 230 229 229 229 230 231 232 233 234 234 234 234 234 234 233 232 231 229 229 228 229 229 229 229 230 231 231 233 234 235 234 231 227 219 210 203 202 204 207 209 209 209 207 205 203 204 207 211 215 217 218 220 224 228 232 242 255 273 294 313 325 331 331 331 330 327 323
228 229 230 230 230 231 231 231 232 232 233 234 233 233 232 231 231 231 231 230 230 230 229 229 230 231 232 233 234 234 234 233 232 229 223 213 205 201 202 205 207 208 207 207 205 203 203 206 211 214 216 217 218 219 223 228 234 245 261 280 299 315 325 329 329 328 327 324 320
229 229 230 230 230 231 232 232 233 233 233 231 230 231 232 230 229 229 230 231 231 231 231 230 232 233 234 235 235 234 232 231 230 226 218 207 201 200 203 206 207 206 205 205 204 205 208 212 215 216 217 217 218 220 223 229 237 249 267 286 303 316 324 326 326 325 324 321 317
230 229 229 229 230 231 233 234 235 234 233 231 230 230 230 231 231 231 232 232 232 232 232 233 234 235 235 235 234 232 230 229 227 221 212 202 199 200 204 206 206 204 203 203 204 208 213 216 217 216 215 216 218 220 224 230 241 255 272 288 303 315 321 323 322 322 320 317 312
230 230 230 230 231 232 234 235 235 234 232 232 233 232 232 234 236 235 234 232 233 233 234 235 235 235 235 234 232 230 229 227 225 217 206 198 198 200 203 204 204 203 202 202 205 211 216 218 217 215 212 213 216 220 225 233 244 259 275 288 299 309 316 318 318 317 315 312 309
232 231 231 231 231 232 233 234 233 232 231 230 232 233 235 236 237 236 235 234 235 235 235 235 235 234 233 232 230 228 227 226 222 213 203 197 198 200 202 202 202 201 201 203 208 214 217 218 215 211 208 210 215 220 227 235 246 261 275 285 292 302 309 312 312 312 311 308 305
235 233 232 231 231 230 230 231 231 230 230 230 232 235 238 238 238 237 237 238 238 237 235 234 233 233 231 230 228 227 226 225 219 209 200 197 198 200 200 200 200 200 201 205 211 215 217 215 210 205 206 209 214 221 228 237 248 261 273 281 286 296 304 307 308 308 307 304 300
236 234 233 231 230 229 228 228 228 228 228 230 232 236 239 239 238 238 239 240 241 238 235 234 233 233 231 230 228 227 226 223 215 206 200 198 198 199 198 198 198 199 202 207 213 216 215 210 205 202 205 209 214 221 229 238 248 258 269 279 287 295 302 305 306 305 304 301 298
234 232 231 229 227 226 226 226 227 227 227 229 232 236 239 239 240 241 242 244 243 240 236 234 234 233 231 229 228 228 226 221 214 206 201 198 197 197 197 198 198 199 204 210 214 214 211 205 201 201 205 208 214 222 230 237 244 254 267 278 290 298 302 304 303 302 301 298 295
232 229 227 225 224 223 224 225 226 226 227 229 231 234 236 238 241 244 246 247 244 239 236 234 233 231 229 228 227 227 225 220 213 207 201 198 196 196 197 198 198 202 206 211 213 210 206 201 200 201 205 210 217 224 229 234 242 253 268 282 293 300 302 301 301 301 299 297 296
231 227 224 222 221 222 223 223 224 225 227 228 230 232 234 236 241 245 246 246 241 237 234 233 232 230 228 226 226 226 224 219 213 206 200 196 195 195 197 198 200 204 209 211 209 205 200 199 201 203 207 213 219 223 228 234 244 257 273 285 295 300 301 300 300 300 299 299 298
228 225 223 221 221 222 222 223 224 225 226 227 229 230 232 236 239 242 243 243 239 235 233 231 229 228 227 226 225 225 222 217 211 205 199 195 195 195 196 198 202 206 209 208 204 200 198 200 203 206 210 215 220 224 229 237 250 264 277 288 295 299 299 299 299 299 299 299 299
225 223 222 221 221 222 223 223 224 225 225 226 226 228 231 234 236 238 239 240 236 233 230 228 226 225 226 226 226 224 220 214 208 203 198 195 194 195 197 200 204 206 205 202 198 197 198 202 205 208 212 216 220 225 232 242 254 267 278 286 292 295 296 297 297 297 298 298 297
223 222 221 221 221 222 222 223 223 223 223 223 224 227 230 232 233 235 236 236 233 230 227 224 223 224 225 226 226 223 218 212 207 201 197 195 193 195 198 202 205 204 200 196 195 196 200 203 206 210 213 217 221 226 234 245 258 270 279 285 290 293 295 296 297 298 298 297 297
222 222 222 221 221 221 221 221 221 220 220 220 223 226 230 232 233 233 232 231 228 226 224 222 222 223 225 226 225 222 217 211 205 200 196 193 193 196 201 204 203 199 195 193 195 198 201 203 206 209 213 216 220 228 239 251 263 274 282 288 292 295 297 298 298 298 297 296 295
220 220 220 220 220 220 220 219 219 218 218 219 222 226 231 234 233 231 228 225 223 223 222 222 222 223 224 225 224 221 215 209 203 198 193 191 194 199 202 202 198 194 192 194 197 200 202 204 207 210 212 215 223 234 247 259 269 278 285 290 294 297 298 298 298 297 295 294 293
218 218 218 218 218 218 218 218 217 217 217 219 223 228 233 234 230 226 223 221 221 221 221 221 223 224 224 224 222 218 212 205 200 194 190 191 196 200 200 197 193 192 194 197 200 202 204 205 208 209 211 217 228 242 255 266 274 280 285 290 293 295 296 296 295 293 292 291 291
216 216 217 217 217 217 217 217 217 217 218 221 225 230 233 231 226 221 218 219 219 219 220 220 221 223 223 222 218 213 206 201 195 191 190 193 196 196 194 191 191 193 196 199 201 202 203 204 206 208 212 221 234 248 259 267 273 277 282 287 291 293 293 293 291 290 289 289 289
216 216 216 216 215 216 216 216 217 217 219 223 226 230 230 225 220 217 215 215 216 217 217 217 218 218 219 218 213 206 200 195 191 190 190 192 192 191 190 190 193 196 198 200 201 202 202 203 204 208 215 227 239 250 257 263 268 274 280 285 289 291 291 290 290 289 289 288 288
216 215 214 213 213 214 215 216 216 217 219 221 224 225 222 217 214 212 211 211 211 212 213 213 213 213 212 211 206 200 194 191 189 189 188 188 188 189 190 193 196 198 200 201 202 203 204 205 208 214 224 234 241 247 253 259 267 275 282 288 291 291 291 290 289 289 289 289 289
212 211 209 209 211 212 213 213 213 214 215 218 218 215 212 209 207 207 207 207 208 208 209 209 210 209 207 205 199 193 189 188 188 188 187 187 188 189 192 196 199 201 201 202 204 205 207 210 213 221 229 235 241 247 254 263 273 281 287 291 292 292 291 290 290 289 289 289 290
205 204 204 205 207 209 209 209 209 208 208 210 209 207 205 203 203 204 205 206 207 206 206 207 208 207 205 201 196 191 188 187 188 188 188 187 188 190 194 198 199 200 200 201 203 205 208 212 218 225 231 237 244 252 262 272 281 287 291 292 293 292 292 291 291 290 289 290 290
197 198 199 201 204 205 204 204 202 201 201 200 201 200 200 201 202 203 205 206 206 206 206 206 206 205 203 199 195 191 189 187 187 187 187 187 189 192 195 196 196 196 197 198 199 202 207 214 222 228 234 242 251 262 272 280 286 290 292 293 294 293 293 292 292 291 290 291 291
192 194 196 198 198 198 197 197 196 196 195 195 196 197 198 200 201 203 204 205 206 206 205 203 202 200 199 197 194 192 190 187 186 185 186 187 190 191 192 192 192 193 194 196 198 202 210 218 226 233 241 251 261 271 279 285 289 292 293 294 295 294 293 292 291 291 291 291 292
189 189 190 191 191 191 191 191 191 192 192 193 195 196 197 198 200 201 202 202 203 202 200 198 196 195 194 193 192 191 189 187 185 185 185 186 187 188 189 190 191 193 196 197 201 207 215 224 232 241 251 261 271 279 285 289 291 294 295 296 296 294 292 290 290 290 291 291 292
184 183 183 183 183 184 184 186 187 189 190 191 193 193 194 195 196 197 198 198 198 196 194 192 191 191 190 189 189 187 185 183 182 182 182 182 183 185 188 191 194 196 198 200 206 213 222 230 240 250 260 269 277 284 289 292 294 297 298 298 296 293 290 289 289 290 291 292 292
178 177 177 177 178 179 180 183 185 186 187 188 189 190 190 191 192 192 193 192 190 188 186 186 186 185 185 184 182 179 176 175 175 176 177 179 182 186 190 193 195 196 199 204 213 221 229 238 247 257 267 275 282 287 291 295 297 299 298 296 292 290 289 289 290 291 292 292 292
176 175 175 176 176 177 178 181 182 183 184 185 186 186 187 187 187 187 186 184 182 180 179 178 178 177 175 173 170 168 167 167 170 172 175 179 182 187 190 191 192 196 203 211 220 229 238 247 255 263 271 278 285 290 294 297 298 298 294 291 289 289 290 291 292 293 293 293 292
177 177 177 176 176 176 177 178 179 180 181 182 182 183 183 182 182 181 179 177 175 173 171 170 168 166 163 161 159 160 162 166 169 173 175 178 181 183 185 187 192 200 209 218 227 238 247 256 264 271 277 283 288 293 296 297 296 293 290 288 289 290 292 293 294 294 294 294 292
176 176 175 175 174 174 174 175 176 177 178 178 178 178 177 176 175 174 172 169 167 166 164 162 159 156 155 155 156 160 164 168 171 173 174 174 175 176 181 189 198 207 216 225 236 246 256 264 272 279 285 290 294 297 297 295 292 289 288 288 290 292 293 294 295 295 295 294 292
173 172 172 172 172 171 172 173 174 174 173 173 172 171 170 168 167 165 164 163 161 159 156 153 152 152 154 157 161 164 167 168 169 168 168 168 172 179 187 196 206 215 225 236 246 255 263 271 279 286 292 297 298 298 294 291 288 288 289 291 293 294 295 296 296 296 295 293 291
169 169 169 169 168 168 168 169 169 168 167 166 166 165 164 162 161 160 159 157 155 152 150 151 152 155 158 162 164 166 166 165 163 161 163 169 179 188 197 207 216 227 238 247 254 261 268 276 284 292 298 300 297 293 289 288 289 290 292 293 294 295 296 296 297 296 294 292 290
164 165 165 165 164 164 163 163 163 163 163 163 162 162 161 159 158 157 154 152 150 150 151 154 158 160 162 164 164 163 160 158 158 162 170 180 189 200 210 220 229 238 246 253 259 267 275 283 290 296 298 296 291 289 289 291 293 294 295 295 296 296 297 297 296 295 294 292 291
162 163 163 163 161 160 159 160 160 161 162 161 160 159 157 156 154 152 151 150 150 152 154 157 159 160 160 160 158 157 156 158 164 173 182 192 201 212 222 231 238 244 251 259 267 275 283 289 293 294 293 290 289 291 293 294 295 296 297 297 297 298 297 297 296 295 294 293 293
163 163 163 163 162 160 160 160 160 160 159 158 156 154 152 151 150 149 149 150 151 153 154 155 156 155 154 152 153 156 161 169 178 187 196 205 215 223 231 237 243 251 260 269 277 284 287 288 289 289 290 291 293 294 295 296 296 297 297 298 298 298 298 297 296 295 295 295 295
164 165 164 164 162 160 158 157 156 155 153 151 149 147 147 146 146 146 148 149 150 150 150 149 148 148 149 152 158 166 175 184 192 201 209 217 224 231 237 244 252 262 271 279 282 283 284 285 287 291 293 294 295 295 296 297 297 298 299 299 299 298 298 297 296 296 296 296 297
165 165 163 160 155 151 149 148 147 146 145 144 143 143 143 143 144 144 145 146 145 144 143 143 145 149 155 162 170 178 187 196 205 212 218 225 231 238 247 255 264 272 277 277 278 281 284 287 291 295 296 296 296 297 298 299 299 300 300 299 299 298 298 298 297 296 296 296 297
165 164 159 152 146 142 141 140 141 141 140 140 140 140 140 140 140 141 140 140 139 139 141 145 152 159 167 175 182 189 196 203 211 218 225 230 236 244 256 265 272 273 275 279 282 286 289 292 295 297 297 297 298 298 300 301 301 301 300 300 300 299 299 299 299 298 297 296 296
164 159 152 145 140 138 138 138 138 138 138 138 138 137 137 137 136 136 136 137 139 143 149 155 162 170 177 185 191 195 199 204 209 214 218 221 231 249 260 266 272 277 281 286 289 290 292 294 296 298 299 300 301 302 303 304 304 303 302 301 301 300 300 300 299 299 298 297 296
157 152 146 142 139 137 137 137 138 138 137 136 135 135 134 133 134 135 137 142 148 155 161 167 171 176 181 184 187 188 188 185 180 175 169 169 199 234 254 267 275 281 285 288 291 292 294 296 298 301 303 305 306 306 306 305 305 304 303 302 302 301 300 300 300 300 300 299 297
148 144 141 138 137 136 136 137 136 136 135 133 132 131 132 133 136 141 146 153 160 167 171 174 175 175 173 171 171 169 165 158 152 154 167 185 208 230 252 268 277 281 285 289 291 294 297 300 304 306 308 309 309 308 307 307 307 305 304 304 304 304 304 303 304 305 304 302 300
Height
1449 1450 1452 1454 1456 1458 1459 1461 1462 1463 1463 1463 1463 1463 1463 1463 1464 1465 1466 1468 1469 1470 1471 1473 1474 1475 1476 1478 1479 1480 1481 1483 1485 1487 1488 1489 1491 1493 1495 1497 1498 1498 1499 1500 1501 1501 1501 1502 1502 1503 1504 1504 1505 1505 1505 1506 1507 1507 1507 1507 1507 1507 1506 1506 1506 1506 1505 1505 1505
1447 1448 1450 1452 1454 1456 1458 1459 1460 1461 1461 1461 1461 1461 1461 1462 1463 1464 1466 1467 1468 1470 1471 1471 1473 1473 1475 1477 1478 1479 1480 1482 1484 1486 1487 1488 1490 1493 1495 1496 1497 1498 1499 1500 1501 1501 1501 1502 1502 1503 1503 1504 1504 1504 1504 1505 1506 1506 1506 1506 1506 1505 1505 1505 1505 1504 1504 1504 1503
1445 1447 1448 1450 1452 1454 1456 1457 1458 1459 1459 1459 1460 1460 1461 1462 1463 1463 1464 1466 1467 1469 1470 1470 1471 1473 1474 1475 1477 1478 1479 1481 1483 1484 1486 1487 1490 1492 1494 1495 1496 1497 1498 1499 1500 1501 1501 1502 1502 1503 1503 1503 1503 1503 1503 1504 1504 1505 1505 1505 1504 1504 1504 1504 1503 1503 1503 1503 1503
1443 1445 1446 1448 1450 1452 1453 1454 1455 1456 1458 1458 1459 1459 1460 1461 1462 1463 1463 1464 1466 1467 1468 1469 1470 1471 1473 1474 1475 1477 1478 1480 1482 1483 1484 1486 1488 1491 1492 1493 1495 1496 1496 1497 1499 1500 1501 1501 1501 1501 1502 1503 1503 1502 1502 1503 1503 1504 1504 1504 1503 1503 1503 1503 1502 1502 1502 1502 1502
1442 1443 1444 1446 1448 1450 1451 1452 1453 1454 1455 1457 1457 1458 1459 1460 1461 1462 1463 1463 1464 1466 1467 1468 1469 1470 1471 1473 1474 1475 1477 1478 1480 1481 1483 1484 1487 1488 1490 1491 1493 1494 1494 1495 1498 1499 1499 1500 1500 1500 1500 1501 1501 1501 1501 1502 1502 1503 1503 1503 1502 1502 1502 1501 1501 1501 1501 1501 1500
1440 1442 1443 1445 1447 1448 1450 1450 1451 1452 1453 1454 1455 1457 1458 1458 1459 1460 1461 1462 1463 1464 1466 1467 1468 1469 1470 1471 1473 1474 1475 1477 1478 1480 1481 1483 1484 1486 1488 1489 1491 1492 1492 1494 1496 1497 1498 1498 1498 1498 1499 1499 1499 1500 1500 1500 1501 1501 1501 1501 1501 1501 1500 1500 1500 1500 1500 1500 1499
1439 1440 1442 1443 1445 1447 1448 1448 1449 1450 1450 1451 1453 1454 1456 1458 1458 1459 1460 1461 1462 1463 1464 1465 1466 1468 1469 1470 1471 1472 1473 1475 1477 1478 1479 1481 1482 1484 1486 1488 1489 1489 1490 1492 1494 1495 1496 1497 1497 1497 1498 1498 1498 1498 1499 1499 1500 1500 1500 1500 1500 1499 1499 1499 1499 1499 1499 1498 1498
1438 1439 1440 1442 1443 1445 1445 1446 1447 1447 1448 1449 1451 1453 1454 1456 1457 1458 1460 1461 1462 1463 1463 1464 1465 1467 1468 1469 1470 1471 1472 1473 1475 1477 1478 1479 1480 1482 1484 1486 1487 1487 1488 1491 1493 1494 1495 1495 1495 1496 1497 1497 1497 1497 1498 1498 1499 1499 1499 1499 1498 1498 1498 1498 1498 1498 1498 1498 1497
1437 1438 1439 1440 1442 1443 1443 1444 1444 1445 1447 1448 1449 1451 1453 1454 1456 1458 1459 1461 1462 1463 1463 1463 1464 1466 1467 1468 1469 1469 1470 1472 1473 1475 1476 1477 1479 1481 1482 1483 1484 1486 1487 1489 1491 1493 1493 1494 1495 1495 1496 1496 1496 1496 1497 1497 1498 1498 1498 1498 1498 1497 1497 1497 1497 1496 1496 1496 1496
1435 1436 1438 1439 1440 1440 1441 1442 1443 1444 1445 1447 1448 1449 1451 1453 1456 1458 1459 1461 1461 1462 1462 1463 1463 1465 1466 1467 1467 1468 1468 1470 1472 1473 1474 1476 1478 1480 1481 1482 1483 1484 1486 1488 1490 1491 1493 1493 1494 1494 1494 1494 1495 1495 1496 1497 1497 1497 1497 1497 1496 1496 1495 1495 1495 1495 1495 1495 1494
1433 1434 1435 1437 1437 1438 1439 1440 1441 1442 1444 1446 1447 1448 1450 1452 1454 1457 1459 1460 1460 1461 1461 1462 1462 1463 1464 1465 1465 1466 1467 1469 1471 1473 1474 1476 1478 1479 1480 1481 1482 1483 1485 1487 1489 1490 1491 1492 1493 1493 1493 1494 1494 1495 1496 1496 1496 1496 1496 1495 1495 1494 1494 1494 1494 1493 1493 1493 1493
1431 1432 1433 1434 1435 1436 1437 1438 1439 1441 1443 1444 1446 1447 1449 1450 1452 1455 1457 1458 1459 1459 1460 1460 1461 1462 1463 1463 1464 1465 1466 1468 1470 1472 1473 1474 1476 1478 1479 1480 1482 1483 1484 1486 1488 1489 1491 1492 1492 1492 1493 1493 1493 1494 1495 1496 1495 1495 1494 1494 1493 1493 1493 1493 1492 1492 1492 1492 1492
1429 1430 1431 1433 1433 1434 1435 1436 1438 1440 1441 1443 1445 1446 1447 1448 1450 1452 1454 1456 1457 1458 1458 1459 1460 1460 1461 1462 1462 1463 1465 1467 1469 1470 1471 1473 1474 1476 1478 1480 1481 1482 1483 1485 1487 1488 1490 1491 1491 1491 1491 1492 1492 1493 1494 1495 1495 1494 1493 1493 1492 1492 1492 1491 1491 1491 1490 1490 1490
1428 1428 1429 1431 1432 1433 1434 1435 1437 1438 1440 1442 1443 1444 1446 1447 1448 1450 1452 1454 1455 1456 1457 1458 1458 1459 1459 1460 1461 1463 1464 1466 1467 1468 1469 1471 1473 1475 1477 1479 1480 1481 1483 1484 1486 1488 1489 1489 1490 1490 1490 1491 1491 1492 1493 1494 1494 1493 1493 1492 1491 1491 1490 1490 1489 1489 1489 1489 1489
1426 1427 1428 1429 1430 1432 1433 1434 1436 1438 1439 1441 1442 1443 1443 1445 1447 1448 1450 1452 1453 1454 1455 1456 1457 1457 1458 1459 1460 1461 1463 1464 1465 1466 1468 1470 1473 1475 1477 1478 1479 1480 1482 1484 1486 1487 1488 1488 1488 1488 1488 1489 1490 1491 1492 1493 1493 1492 1491 1490 1490 1489 1489 1488 1488 1488 1488 1488 1487
1424 1425 1427 1428 1429 1430 1432 1434 1435 1437 1438 1439 1440 1441 1442 1444 1446 1447 1448 1450 1451 1453 1453 1454 1455 1456 1456 1458 1458 1460 1461 1463 1464 1465 1468 1470 1473 1474 1476 1477 1478 1479 1481 1483 1485 1486 1486 1486 1486 1487 1487 1488 1489 1491 1491 1492 1491 1491 1490 1489 1488 1488 1487 1487 1487 1487 1486 1486 1486
1423 1424 1425 1426 1428 1429 1431 1433 1435 1436 1437 1438 1438 1439 1441 1443 1444 1446 1447 1448 1449 1450 1452 1453 1453 1454 1455 1456 1457 1459 1460 1462 1463 1466 1468 1470 1473 1474 1475 1476 1477 1479 1481 1483 1484 1484 1485 1485 1485 1486 1486 1487 1488 1490 1490 1490 1490 1489 1488 1488 1487 1486 1486 1486 1485 1485 1485 1485 1485
1422 1423 1424 1425 1427 1429 1431 1433 1434 1435 1435 1436 1437 1438 1440 1442 1443 1444 1445 1446 1448 1449 1450 1451 1452 1453 1454 1455 1456 1458 1460 1462 1464 1466 1469 1471 1472 1473 1474 1475 1477 1479 1481 1482 1483 1483 1483 1484 1484 1485 1485 1487 1488 1488 1489 1489 1488 1488 1487 1486 1486 1485 1485 1484 1484 1484 1484 1483 1483
1421 1422 1423 1425 1427 1428 1430 1431 1432 1433 1434 1435 1436 1437 1439 1440 1441 1442 1443 1445 1446 1448 1449 1450 1451 1453 1454 1455 1456 1458 1460 1462 1464 1467 1468 1470 1471 1472 1473 1474 1477 1478 1480 1481 1482 1482 1482 1483 1483 1484 1484 1486 1486 1487 1487 1488 1487 1487 1486 1485 1484 1484 1483 1483 1483 1483 1483 1482 1482
1420 1421 1422 1424 1425 1427 1428 1430 1431 1432 1433 1433 1434 1436 1437 1438 1440 1441 1443 1444 1445 1447 1448 1449 1451 1452 1453 1454 1456 1458 1460 1462 1464 1466 1467 1468 1469 1471 1472 1474 1477 1478 1479 1480 1481 1481 1481 1482 1482 1483 1484 1485 1486 1486 1486 1486 1486 1485 1484 1484 1483 1483 1482 1482 1482 1481 1481 1480 1480
1419 1420 1422 1423 1424 1425 1427 1428 1429 1430 1431 1432 1433 1434 1436 1437 1439 1440 1442 1443 1444 1446 1447 1448 1450 1451 1452 1454 1456 1458 1460 1462 1463 1464 1465 1466 1468 1470 1473 1475 1477 1478 1479 1479 1480 1480 1480 1481 1482 1483 1483 1484 1485 1485 1485 1485 1484 1483 1483 1482 1482 1481 1481 1481 1480 1480 1479 1479 1478
1418 1419 1421 1422 1423 1424 1425 1426 1427 1428 1429 1431 1432 1433 1435 1436 1438 1439 1440 1441 1443 1444 1446 1447 1448 1450 1451 1453 1455 1457 1458 1459 1461 1462 1463 1465 1468 1471 1474 1476 1477 1478 1478 1479 1479 1479 1480 1481 1482 1483 1484 1484 1484 1484 1484 1483 1483 1482 1482 1481 1480 1480 1479 1479 1479 1478 1478 1478 1477
1417 1418 1420 1421 1422 1423 1423 1424 1426 1427 1428 1430 1431 1433 1434 1435 1436 1438 1439 1440 1442 1443 1445 1447 1448 1450 1451 1453 1455 1456 1457 1458 1460 1462 1464 1467 1470 1472 1474 1475 1476 1477 1477 1478 1478 1479 1480 1481 1482 1483 1483 1483 1483 1483 1482 1482 1481 1481 1480 1480 1479 1479 1478 1478 1477 1477 1477 1476 1476
1415 1417 1418 1420 1421 1422 1423 1424 1425 1426 1427 1429 1430 1432 1433 1434 1435 1437 1438 1440 1442 1443 1445 1447 1448 1450 1452 1453 1455 1456 1458 1459 1462 1464 1467 1469 1471 1472 1473 1474 1475 1476 1476 1477 1477 1478 1480 1481 1482 1483 1482 1482 1482 1481 1481 1480 1480 1479 1479 1478 1478 1477 1477 1476 1476 1476 1475 1475 1474
1415 1417 1418 1419 1420 1421 1422 1423 1424 1425 1427 1428 1430 1431 1432 1433 1435 1436 1438 1440 1442 1444 1445 1447 1449 1450 1452 1454 1456 1458 1459 1461 1463 1465 1468 1469 1470 1472 1473 1474 1475 1475 1475 1476 1477 1478 1480 1481 1481 1481 1481 1481 1480 1480 1479 1478 1478 1478 1477 1477 1477 1476 1476 1475 1475 1474 1474 1473 1473
1415 1416 1417 1418 1419 1420 1421 1423 1424 1425 1426 1428 1429 1431 1432 1433 1435 1436 1438 1440 1442 1444 1446 1448 1449 1451 1453 1455 1457 1458 1461 1463 1464 1466 1468 1469 1470 1471 1473 1473 1474 1474 1475 1476 1477 1478 1479 1480 1480 1480 1480 1479 1479 1478 1478 1477 1476 1476 1476 1475 1475 1475 1475 1474 1474 1473 1473 1472 1472
1414 1415 1416 1417 1418 1419 1421 1422 1423 1425 1426 1427 1429 1430 1432 1433 1435 1437 1438 1440 1442 1444 1446 1448 1450 1452 1453 1455 1457 1459 1461 1463 1465 1466 1468 1469 1470 1471 1472 1473 1473 1474 1475 1476 1478 1478 1479 1479 1479 1479 1478 1478 1478 1477 1476 1476 1475 1475 1474 1474 1474 1473 1473 1473 1473 1472 1471 1471 1470
1413 1414 1415 1416 1418 1419 1420 1422 1423 1425 1426 1428 1429 1430 1432 1433 1435 1437 1439 1441 1443 1445 1447 1448 1450 1452 1454 1456 1458 1459 1461 1463 1465 1466 1468 1468 1469 1470 1471 1472 1473 1474 1476 1477 1477 1478 1478 1478 1478 1478 1477 1477 1476 1475 1475 1474 1474 1473 1473 1473 1472 1472 1472 1471 1471 1470 1470 1469 1468
1413 1413 1415 1416 1418 1419 1421 1423 1425 1426 1428 1428 1430 1431 1433 1434 1436 1438 1440 1442 1444 1445 1447 1448 1450 1452 1454 1456 1458 1460 1462 1463 1465 1466 1467 1468 1468 1469 1471 1472 1473 1475 1476 1476 1477 1477 1477 1476 1476 1476 1476 1475 1475 1474 1473 1473 1473 1472 1472 1471 1471 1470 1470 1470 1469 1468 1468 1468 1467
1413 1414 1416 1417 1419 1421 1423 1424 1426 1427 1428 1430 1431 1433 1434 1436 1438 1439 1441 1443 1444 1446 1447 1449 1451 1452 1454 1456 1458 1461 1463 1464 1465 1466 1467 1467 1468 1469 1471 1473 1474 1475 1475 1475 1475 1475 1475 1475 1475 1474 1474 1474 1473 1472 1472 1472 1471 1471 1471 1470 1470 1469 1468 1468 1468 1467 1466 1466 1465
1415 1416 1417 1418 1420 1422 1424 1425 1427 1428 1430 1431 1433 1434 1435 1437 1439 1440 1442 1443 1445 1447 1448 1450 1451 1453 1455 1458 1460 1462 1463 1464 1465 1465 1466 1467 1468 1470 1472 1473 1473 1474 1474 1474 1474 1474 1474 1473 1473 1473 1473 1472 1472 1471 1471 1471 1470 1470 1469 1469 1468 1468 1467 1467 1466 1465 1465 1464 1463
1416 1417 1418 1419 1420 1422 1424 1426 1428 1430 1432 1433 1434 1435 1437 1438 1440 1442 1443 1445 1446 1448 1449 1451 1453 1455 1457 1459 1461 1462 1463 1464 1464 1465 1466 1468 1469 1471 1472 1472 1473 1473 1473 1473 1473 1473 1473 1472 1472 1471 1471 1470 1470 1470 1470 1470 1469 1468 1468 1468 1467 1466 1466 1465 1464 1463 1463 1463 1462
1416 1417 1418 1419 1421 1423 1424 1427 1429 1431 1433 1434 1435 1436 1438 1439 1441 1443 1445 1446 1448 1449 1451 1453 1455 1457 1458 1460 1461 1462 1463 1463 1464 1466 1467 1469 1470 1470 1471 1471 1471 1471 1472 1472 1472 1472 1471 1471 1470 1470 1469 1469 1469 1469 1469 1468 1468 1467 1467 1466 1465 1465 1464 1463 1463 1462 1461 1461 1460
1418 1418 1419 1421 1422 1424 1426 1428 1430 1432 1433 1435 1436 1438 1439 1441 1442 1444 1445 1447 1449 1451 1453 1455 1456 1458 1459 1460 1461 1461 1462 1463 1465 1467 1468 1468 1469 1469 1470 1470 1470 1471 1471 1471 1471 1470 1470 1469 1469 1469 1469 1469 1468 1468 1468 1467 1467 1466 1465 1464 1464 1463 1463 1462 1461 1461 1460 1459 1459
1420 1421 1422 1423 1424 1426 1427 1429 1431 1433 1434 1436 1438 1439 1441 1443 1444 1445 1447 1448 1450 1452 1454 1456 1457 1458 1459 1460 1461 1462 1463 1465 1466 1467 1468 1468 1468 1469 1469 1470 1470 1470 1470 1469 1469 1468 1468 1468 1468 1468 1468 1468 1467 1467 1466 1466 1465 1464 1464 1463 1463 1462 1461 1460 1460 1459 1458 1458 1458
1422 1423 1423 1424 1426 1427 1429 1431 1433 1434 1436 1438 1439 1441 1443 1444 1446 1447 1449 1450 1452 1453 1455 1456 1457 1458 1459 1461 1462 1463 1465 1466 1466 1467 1467 1468 1468 1468 1469 1469 1469 1468 1468 1468 1468 1468 1468 1467 1467 1467 1467 1466 1466 1465 1465 1464 1464 1463 1463 1462 1461 1461 1460 1459 1458 1458 1457 1457 1456
1424 1424 1425 1426 1428 1429 1431 1433 1435 1436 1438 1439 1441 1442 1444 1446 1447 1449 1451 1452 1453 1454 1455 1457 1458 1459 1460 1462 1463 1464 1465 1466 1466 1467 1467 1467 1468 1468 1468 1468 1468 1468 1468 1467 1467 1467 1467 1466 1466 1466 1466 1465 1465 1464 1464 1463 1463 1462 1462 1461 1460 1459 1459 1458 1458 1457 1456 1456 1455
1426 1427 1428 1429 1430 1432 1433 1435 1436 1438 1439 1441 1443 1444 1445 1447 1448 1450 1451 1453 1453 1455 1456 1457 1459 1460 1461 1463 1463 1464 1465 1465 1466 1466 1466 1467 1467 1467 1467 1467 1467 1467 1467 1467 1466 1466 1466 1465 1465 1465 1465 1464 1463 1463 1463 1462 1461 1461 1460 1460 1459 1458 1458 1457 1456 1456 1455 1455 1454
1428 1429 1430 1431 1432 1433 1435 1437 1438 1439 1441 1442 1443 1445 1447 1448 1449 1451 1452 1453 1455 1456 1457 1458 1460 1461 1462 1463 1463 1464 1464 1465 1465 1465 1466 1466 1466 1466 1466 1466 1466 1466 1466 1466 1465 1465 1465 1464 1464 1464 1463 1463 1462 1462 1461 1461 1460 1459 1459 1458 1458 1457 1457 1456 1455 1455 1454 1453 1453
1430 1431 1432 1433 1434 1435 1437 1438 1440 1441 1442 1443 1445 1446 1448 1449 1450 1452 1453 1454 1456 1457 1458 1459 1460 1461 1462 1463 1463 1463 1464 1464 1465 1465 1465 1465 1465 1465 1466 1466 1465 1465 1465 1465 1465 1464 1464 1463 1463 1463 1462 1462 1461 1461 1460 1459 1459 1458 1458 1457 1457 1456 1456 1455 1455 1454 1453 1453 1452
1433 1433 1434 1435 1436 1438 1439 1440 1442 1443 1444 1445 1446 1448 1449 1450 1452 1453 1454 1456 1457 1458 1459 1460 1461 1462 1462 1463 1463 1463 1464 1464 1464 1464 1465 1465 1465 1465 1465 1465 1465 1465 1464 1464 1464 1463 1463 1462 1461 1461 1461 1460 1460 1459 1459 1458 1458 1457 1457 1456 1456 1455 1455 1454 1453 1453 1452 1452 1451